This is the latest recevied weather packets stored in our database for station/object CA3DPI. If no packets are shown the sender has not sent any weather packets the latest 10 day(s).
| Time | Temp. | Humidity | Pressure | Rain* | Wind** | Luminosity | Snow |
|---|---|---|---|---|---|---|---|
| 1777864019 | 17.22° C | 36% | 1021 hPa | - | - | - | - |
| 1777863419 | 17.78° C | 35% | 1020.9 hPa | - | - | - | - |
| 1777862819 | 17.78° C | 36% | 1020.8 hPa | - | - | - | - |
| 1777862225 | 17.78° C | 36% | 1020.8 hPa | - | - | - | - |
| 1777861625 | 18.33° C | 36% | 1020.6 hPa | - | - | - | - |
| 1777861024 | 18.33° C | 35% | 1020.8 hPa | - | - | - | - |
| 1777860424 | 18.33° C | 35% | 1020.8 hPa | - | - | - | - |
| 1777859824 | 18.89° C | 34% | 1020.8 hPa | - | - | - | - |
| 1777859224 | 19.44° C | 34% | 1020.8 hPa | - | - | - | - |
| 1777858624 | 19.44° C | 34% | 1020.8 hPa | - | - | - | - |
| 1777858024 | 19.44° C | 34% | 1020.6 hPa | - | - | - | - |
| 1777857424 | 18.89° C | 35% | 1020.4 hPa | - | - | - | - |
| 1777856823 | 18.89° C | 35% | 1020.6 hPa | - | - | - | - |
| 1777856223 | 18.33° C | 35% | 1020.7 hPa | - | - | - | - |
| 1777855623 | 18.89° C | 34% | 1020.7 hPa | - | - | - | - |
| 1777855023 | 18.89° C | 34% | 1020.5 hPa | - | - | - | - |
| 1777854423 | 19.44° C | 34% | 1020.4 hPa | - | - | - | - |
| 1777853823 | 19.44° C | 33% | 1020.4 hPa | - | - | - | - |
| 1777853222 | 19.44° C | 33% | 1020.5 hPa | - | - | - | - |
| 1777852622 | 19.44° C | 34% | 1020.3 hPa | - | - | - | - |
| 1777852022 | 20° C | 33% | 1020.4 hPa | - | - | - | - |
| 1777851422 | 20° C | 33% | 1020.4 hPa | - | - | - | - |
| 1777850822 | 20° C | 33% | 1020.3 hPa | - | - | - | - |
| 1777850221 | 20.56° C | 33% | 1020.2 hPa | - | - | - | - |
| 1777849756 | 20.56° C | 33% | 1020.3 hPa | - | - | - | - |
* Rain since midnight (hover to see other rain measurements)
** Current wind speed in m/s (hover to see current wind gust speed)